Aeroporto :
LOGIN :

Iscrizione | Disclaimer

   EN    FR    IT 

 










Sommario :    VFR   VFR Marginale   IFR   IFR Intensivo   IFR Molto Intensivo
Visibilità : 
Base nubi : 
>= 8 km
>= 3000ft
5 / 8 km
1000 / 3000 ft
1500m / 5 km
500 / 1000 ft
800 / 1500m
200 / 500 ft
< 800m
< 200 ft
Simboli :   Temporali  Nebbia  Neve Forte  Precipitazioni Forti  Vento > 20 kt
SIGMETs :   Varie  Temporali  Ghiacco  Turbolenza  Onda orograficha  Ceneri Vulcaniche






- Altitudine del aeroporto : 446 ft
- Codice IATA : VNE


LFRV - Vannes-Meucon

ULTIMO METAR :
  • 070100Z AUTO 02008KT 9999 SCT049 SCT088 10/07 Q1025

METARs OBSOLETI :
  • 070030Z AUTO 03008KT 9999 SCT041 OVC047 10/07 Q1025
  • 070000Z AUTO 03008KT 9999 OVC043 10/07 Q1025
  • 062330Z AUTO 04008KT 9999 OVC042 10/07 Q1025
  • 062300Z AUTO 03008KT 9999 SCT043 BKN056 OVC220 10/07 Q1025
  • 062230Z AUTO 03008KT 9999 FEW043 SCT210 OVC230 10/07 Q1025

TAF N/A



MetMap, La meteo Aeronautica in un colpo d'occhio ! - Copyright ORBIFLY Dicembre 2007 - Disclaimer

ORBIFLY MET'MAP TEAM :

Programmazione e sviluppo : Alexandra Zaïnal
Concezione : Baudouin d'Aumeries
Aiuto per la programmazione : Marc-Olivier Méhu
Supporto tecnico e logistico : Manuel Goepfert
Aiuto per la traduzione : Arnaldo La Scala

Contatto : metmap@orbifly.com




FONTI E CREDITI :

   NOAA